This demonstration page uses our WeatherBlox Daily Observations layout. Learn more.

Left ArrowRight Arrow

34.16533, -84.80231

Hourly Observations for April 15, 2020

Temp ( °F °C ) Dew Point ( °F °C ) Humidity (%) Winds ( mph kmh ) Pressure ( in mb ) Visibility ( mi km ) Precip ( " mm )
12:53 am 00:53 Mostly Cloudy 48 8.9 32 0 54 54 VRB 5 7 30.05 1018 10 16 0.00 0.00
1:53 am 01:53 Cloudy 47 8.3 31 -0.6 54 54 VRB 6 9 30.06 1018 10 16 0.00 0.00
2:53 am 02:53 Cloudy 45 7.2 32 0 61 61 VRB 6 9 30.04 1017 10 16 0.00 0.00
3:53 am 03:53 Mostly Cloudy 43 6.1 31 -0.6 63 63 VRB 6 9 30.03 1017 10 16 0.00 0.00
4:53 am 04:53 Clear 42 5.6 28 -2.2 58 58 VRB 5 7 30.02 1017 10 16 0.00 0.00
5:53 am 05:53 Clear 42 5.6 25 -3.9 51 51 NNW 9 15 30.03 1017 10 16 0.00 0.00
6:53 am 06:53 Clear 42 5.6 25 -3.9 51 51 NNW 8 13 30.05 1018 10 16 0.00 0.00
7:53 am 07:53 Sunny 42 5.6 25 -3.9 51 51 N 6 9 30.06 1018 10 16 0.00 0.00
8:53 am 08:53 Sunny 44 6.7 26 -3.3 49 49 N 12 19 30.08 1019 10 16 0.00 0.00
9:53 am 09:53 Sunny 47 8.3 26 -3.3 44 44 NNW 12 19 30.07 1018 10 16 0.00 0.00
10:53 am 10:53 Sunny 49 9.4 27 -2.8 43 43 N 8 13 30.08 1019 10 16 0.00 0.00
11:53 am 11:53 Sunny 54 12.2 24 -4.4 31 31 N 9 15 30.09 1019 10 16 0.00 0.00
12:53 pm 12:53 Sunny 56 13.3 23 -5 28 28 N 10 17 30.08 1019 10 16 0.00 0.00
1:53 pm 13:53 Sunny 57 13.9 24 -4.4 28 28 NW 9 15 30.06 1018 10 16 0.00 0.00
2:53 pm 14:53 Sunny 59 15 27 -2.8 29 29 undefined N/A 30.05 1018 10 16 0.00 0.00
3:53 pm 15:53 Sunny 60 15.6 25 -3.9 26 26 N 13 20 30.04 1017 10 16 0.00 0.00
4:53 pm 16:53 Sunny 61 16.1 26 -3.3 26 26 N 9 15 30.03 1017 10 16 0.00 0.00
5:53 pm 17:53 Sunny 61 16.1 23 -5 23 23 N 10 17 30.04 1017 10 16 0.00 0.00
6:53 pm 18:53 Sunny 58 14.4 22 -5.6 25 25 N 9 15 30.06 1018 10 16 0.00 0.00
7:53 pm 19:53 Sunny 55 12.8 26 -3.3 33 33 NNE 5 7 30.07 1018 10 16 0.00 0.00
8:53 pm 20:53 Clear 44 6.7 35 1.7 71 71 S 3 6 30.10 1019 10 16 0.00 0.00
9:53 pm 21:53 Clear 42 5.6 34 1.1 73 73 Calm 30.13 1020 10 16 0.00 0.00
10:53 pm 22:53 Clear 39 3.9 33 0.6 79 79 Calm 30.16 1021 10 16 0.00 0.00
11:53 pm 23:53 Clear 38 3.3 33 0.6 83 83 Calm 30.16 1021 10 16 0.00 0.00

Powered by AerisWeather